Wind_Speed
3 4 18 23 18 12 10 18 8 2 13 16 18 18 20 14 9 13 21 15 17 18 14 21 31 27 20 20 18 22 24 22 26 35 28 28 28 25 23 21 19 22 24 24
5 20 14 10 7 14 15 14 16 8 9 11 15 23 24 21 18 19 20 17 15 8 9 11 13 17 22 20 19 22 25 25 29 33 32 27 24 20 19 17 19 19 21 21
11 4 9 17 12 15 16 20 15 12 13 23 13 12 11 13 11 12 9 12 11 10 13 13 9 14 17 21 22 23 26 28 28 27 25 20 17 17 19 18 17 18 19 20
10 9 14 12 22 13 20 9 16 16 10 16 9 18 22 18 23 18 13 10 10 13 10 8 8 7 18 21 21 23 24 26 28 27 25 24 23 11 16 16 17 19 20 18
11 7 2 13 15 14 20 11 15 13 11 16 19 6 26 6 17 14 12 10 14 14 11 11 9 10 18 25 26 26 28 28 29 26 24 24 19 14 14 17 15 17 15 13
14 8 11 9 11 9 5 8 10 9 4 10 10 8 28 15 22 15 6 11 14 13 9 3 9 18 19 25 27 31 31 28 27 23 20 19 16 14 16 14 15 14 11 11
3 10 15 12 12 9 5 2 2 2 6 17 12 9 22 6 3 8 11 12 13 11 8 10 15 14 17 21 28 32 30 24 24 24 19 16 15 17 16 13 11 11 10 11
2 4 6 2 2 2 6 9 5 7 4 7 9 13 17 19 30 22 20 17 15 4 8 11 14 15 19 23 26 27 28 25 24 23 19 17 15 13 10 9 10 7 7 7
2 3 5 9 7 6 5 9 5 5 15 1 7 10 18 21 24 21 22 9 12 7 10 13 13 14 18 20 24 30 30 26 24 21 17 13 11 10 9 8 6 5 5 5
1 3 6 5 4 5 9 3 4 4 6 9 6 8 11 6 10 12 10 15 6 9 12 12 12 12 19 21 27 29 28 25 22 20 15 13 11 9 7 6 5 6 6 7
4 4 4 5 3 5 2 4 4 4 4 10 6 9 6 12 12 15 15 12 15 16 17 15 14 16 20 23 26 28 26 24 21 20 16 14 11 9 7 7 7 6 7 8
4 2 4 10 16 17 7 5 5 4 10 5 10 18 8 10 11 12 10 12 15 17 17 15 14 13 19 21 23 25 26 24 24 20 16 13 12 9 8 7 8 6 8 9
4 3 4 9 3 5 4 3 2 5 6 18 6 8 10 9 15 16 4 11 13 14 14 15 15 14 13 20 21 24 27 26 23 18 15 14 12 10 9 8 7 6 8 10
4 4 6 6 9 6 10 8 6 2 2 10 18 16 22 17 20 19 7 12 17 17 18 17 15 14 13 21 21 23 28 28 23 19 17 17 11 11 10 8 8 6 9 11
5 5 9 14 16 16 17 19 11 8 6 3 6 10 19 19 20 21 13 16 17 17 18 17 17 15 14 19 21 24 29 28 23 23 21 15 14 11 11 9 8 6 9 12
3 3 3 14 19 19 21 19 13 14 11 10 15 17 17 19 13 7 19 22 21 20 19 18 17 16 15 18 21 24 27 29 26 23 21 20 17 12 11 11 10 10 9 13
6 4 2 8 9 4 7 12 13 7 5 3 5 7 11 5 13 9 3 22 22 21 20 20 19 17 16 22 24 24 27 30 28 26 23 22 19 16 13 12 13 12 12 14
7 6 3 6 8 4 2 5 2 4 7 3 8 17 12 1 3 9 9 4 16 18 18 18 16 15 23 25 25 31 29 30 28 26 22 22 18 16 16 15 15 14 13 14
15 6 3 3 4 3 5 5 6 6 2 13 16 11 14 5 10 8 8 6 2 19 17 17 21 24 25 27 29 30 25 29 25 25 21 23 19 20 19 17 16 15 15 15
10 7 4 3 5 3 3 11 16 13 5 17 20 17 3 7 9 4 8 8 6 13 16 17 25 26 27 27 33 27 24 25 22 26 24 27 23 24 21 19 19 16 17 16
2 3 9 9 4 1 12 18 19 7 5 19 17 17 13 7 4 9 8 7 5 4 13 25 28 26 29 30 32 25 24 22 29 31 28 26 24 27 21 20 20 18 18 18
2 4 2 3 2 1 19 19 8 6 8 17 18 10 7 10 12 9 7 5 9 5 11 20 18 21 26 31 31 24 23 32 26 24 28 27 25 26 23 22 21 19 21 20
2 3 3 3 3 1 1 5 6 6 10 10 12 13 10 10 7 7 5 5 6 7 6 12 13 17 23 29 30 25 30 33 28 25 30 29 30 27 25 22 22 22 22 18
4 5 1 3 6 6 3 5 8 9 12 13 14 9 9 10 10 9 5 5 6 9 9 9 16 8 12 23 26 33 36 35 29 29 29 31 32 28 26 21 22 23 24 19
2 7 7 4 5 10 8 12 11 11 12 14 18 12 13 10 12 7 8 10 10 7 8 1 13 12 14 23 23 32 37 34 29 30 30 29 31 30 28 23 22 22 24 27
0 2 4 3 9 4 10 11 16 11 11 16 18 20 16 9 9 5 9 10 10 10 15 14 14 14 20 26 25 31 37 36 32 26 26 27 28 27 29 26 20 18 19 24
Wind_Direction
205 189 220 211 216 236 259 245 268 232 217 228 245 257 261 253 244 262 266 269 261 257 252 259 255 236 225 236 209 197 193 194 189 174 153 155 159 159 161 171 188 196 205 209
197 229 234 246 220 231 249 263 266 290 289 236 246 255 263 264 259 249 256 259 253 256 262 257 247 203 193 188 193 192 190 185 182 177 173 160 159 169 178 184 195 195 203 206
217 218 230 241 239 245 231 236 254 261 294 288 291 285 284 266 250 257 262 250 265 241 252 248 201 196 174 176 181 178 180 178 174 172 171 163 161 168 186 198 207 212 206 205
255 229 254 249 230 230 246 242 238 254 250 258 216 277 268 266 264 264 241 247 245 248 246 245 197 165 174 168 163 165 171 162 161 163 165 169 175 176 203 206 219 219 197 200
231 283 172 236 243 225 252 259 232 237 235 251 262 293 267 250 258 247 248 248 251 255 240 235 190 168 161 158 156 153 156 161 161 163 167 171 174 177 179 197 198 182 190 211
226 220 248 248 265 257 325 245 244 253 234 251 219 199 272 248 246 246 218 242 255 266 265 172 147 144 146 153 152 152 152 155 161 163 161 162 153 158 155 149 155 169 191 219
268 235 237 242 257 270 209 47 246 246 197 236 158 211 237 248 279 223 237 247 253 245 161 151 149 148 144 145 147 152 153 145 157 160 158 157 142 142 148 151 165 176 201 233
256 284 174 32 99 273 215 177 197 195 204 230 274 229 240 232 262 265 260 247 252 240 167 164 159 152 147 148 148 152 153 144 149 146 136 136 138 141 146 159 168 189 229 234
193 252 340 319 308 138 308 222 179 287 273 270 226 274 281 275 275 267 269 239 245 195 158 156 147 141 144 145 148 152 150 143 141 141 138 142 142 143 138 161 179 211 211 208
217 292 254 287 299 241 208 253 176 204 200 239 253 257 234 255 260 266 262 245 172 146 137 139 136 137 141 146 149 155 153 148 147 143 147 153 155 159 177 185 179 190 188 186
309 162 298 347 241 218 273 216 191 161 197 221 256 249 197 264 260 278 296 204 155 155 153 150 144 145 144 144 150 156 153 153 151 153 159 168 162 163 168 170 171 179 180 172
309 156 271 260 267 256 258 255 172 218 238 258 242 253 312 252 278 285 243 163 159 158 155 142 144 145 145 147 154 158 157 157 160 163 171 169 164 164 164 158 168 181 179 167
332 326 324 328 314 44 240 103 4 284 206 238 249 263 226 282 276 280 227 149 148 144 138 137 147 150 152 153 158 158 161 162 163 166 172 161 162 165 164 161 164 174 176 176
242 227 203 224 253 304 290 275 306 84 276 246 243 278 273 271 278 292 145 172 156 156 151 149 151 152 156 158 160 157 162 166 168 169 167 156 154 167 168 162 159 169 178 184
157 232 226 255 265 266 262 265 256 235 233 238 299 297 289 289 281 267 181 174 155 154 153 156 156 155 160 155 158 159 165 172 172 175 168 155 167 165 166 156 154 164 178 178
133 268 304 278 272 257 252 252 236 232 236 248 250 273 275 277 289 273 174 167 163 160 157 157 156 155 163 159 159 163 169 177 175 178 172 161 159 164 170 158 151 163 164 162
180 198 261 273 341 111 229 239 232 231 195 209 243 238 302 309 336 39 246 163 160 159 160 161 162 163 164 165 163 165 173 179 179 180 171 168 167 169 171 163 160 162 159 149
224 173 199 277 280 219 186 59 20 302 236 5 279 259 264 178 245 46 20 197 155 155 159 161 162 165 163 166 167 174 173 175 173 177 174 167 166 172 168 165 166 162 159 155
212 204 259 260 299 258 195 15 343 335 176 21 337 302 175 199 49 6 11 312 178 164 164 164 167 165 163 164 169 170 162 170 166 172 178 177 179 172 170 169 167 165 161 157
182 201 182 308 275 294 145 319 299 282 215 355 337 324 28 343 75 288 301 309 331 177 162 162 164 163 161 166 167 162 164 165 171 177 185 184 184 172 175 173 172 170 168 163
333 219 232 243 261 277 338 310 277 176 333 314 323 337 354 61 114 300 297 295 320 233 173 165 161 167 169 163 162 163 170 173 180 188 192 185 183 174 172 170 168 165 166 159
307 297 297 294 266 331 356 358 54 346 329 330 319 321 316 22 34 294 313 347 352 359 149 163 161 163 166 164 163 164 172 184 183 184 191 184 183 171 169 169 168 165 164 165
305 350 323 352 331 110 133 15 3 321 316 305 308 307 2 23 355 305 5 22 359 7 76 124 152 150 164 168 170 167 181 183 186 181 178 179 174 173 171 169 167 168 171 161
324 354 53 231 172 296 39 49 347 307 298 320 302 301 13 10 356 343 26 37 39 26 19 112 122 126 160 177 177 177 181 185 184 174 169 168 168 172 173 173 169 173 178 172
328 318 307 248 6 348 1 344 332 333 335 319 322 345 355 359 356 325 18 21 30 41 21 44 133 160 184 186 187 183 181 185 175 166 164 165 169 171 174 176 176 185 194 191
35 322 328 320 334 320 290 311 324 333 337 322 331 328 335 347 334 321 29 16 9 23 27 26 33 205 188 192 192 187 184 187 173 162 164 167 170 172 175 178 181 193 198 199
Height
742 755 743 734 739 741 738 740 741 731 725 729 729 724 710 705 708 704 693 693 687 680 674 670 668 668 670 672 674 676 677 681 685 692 698 703 708 713 719 722 725 728 732 735
747 741 731 734 739 745 747 749 745 739 726 725 726 720 706 700 696 692 688 686 681 678 672 666 664 665 664 665 669 672 674 679 684 689 696 701 707 713 717 720 723 726 729 731
743 733 729 738 740 742 740 744 746 748 734 720 729 730 717 696 691 682 680 675 672 672 668 664 664 661 662 663 666 670 674 677 684 691 697 703 708 713 716 719 722 724 726 728
737 730 731 734 739 738 743 733 736 739 745 744 725 741 714 693 683 678 677 674 672 664 659 658 659 661 660 664 667 669 677 681 686 691 697 701 706 710 713 717 719 722 725 727
730 729 732 735 731 726 730 726 729 732 738 742 734 751 683 691 683 677 671 668 659 652 654 654 655 657 661 664 667 671 678 684 688 692 697 702 706 710 712 715 718 721 724 726
725 724 726 728 722 723 722 725 728 729 739 751 731 744 676 684 673 669 664 660 651 647 646 648 652 657 661 665 669 673 680 685 689 693 698 702 706 709 712 715 718 720 723 724
727 726 718 716 726 722 727 741 757 759 757 733 719 732 675 660 654 656 659 656 650 644 649 651 651 656 662 666 669 675 681 685 689 694 699 702 706 708 711 715 717 719 721 721
735 738 717 711 722 729 729 736 748 751 751 732 710 710 673 664 648 646 640 641 638 640 645 648 649 653 658 664 670 675 681 684 689 694 699 703 706 709 712 714 716 718 719 719
737 731 716 713 713 721 724 728 720 733 720 735 709 684 662 649 648 644 638 642 638 641 642 646 649 653 662 665 670 675 679 685 690 694 699 703 706 709 711 714 715 716 717 718
732 740 721 716 711 708 717 711 730 734 740 738 709 696 679 659 653 641 641 634 636 639 644 648 652 657 661 667 672 678 680 685 691 694 700 704 707 709 711 713 715 716 717 718
735 740 731 723 718 716 719 718 717 720 722 717 715 687 658 652 644 637 628 622 630 636 640 645 650 657 662 668 674 679 682 687 691 696 701 704 706 709 710 713 715 716 716 717
739 744 743 729 715 708 712 716 720 727 719 709 694 669 642 643 636 630 629 623 625 629 635 641 651 657 662 668 674 679 682 687 692 696 701 703 706 708 711 713 714 715 716 717
743 749 752 733 712 709 714 713 716 719 708 700 710 666 641 642 634 622 634 625 628 634 639 644 652 658 663 668 674 678 682 687 692 697 700 703 706 708 711 713 714 715 716 718
741 749 744 754 727 723 722 712 712 718 721 696 682 675 650 643 635 623 630 629 628 632 636 644 652 657 663 668 673 677 682 687 692 696 700 703 705 708 711 713 713 714 716 718
745 745 730 725 720 718 715 709 707 712 711 714 690 692 667 655 635 622 625 626 629 633 638 644 649 655 661 665 672 677 681 686 691 696 700 702 706 708 711 712 713 715 717 719
741 737 734 725 712 708 707 699 702 698 698 697 694 686 654 642 629 617 613 617 624 628 635 641 648 653 660 663 669 675 680 685 690 695 698 701 704 707 709 712 713 716 717 719
744 743 733 716 709 692 704 690 689 684 681 682 688 669 650 641 638 626 619 608 617 624 631 637 643 650 655 661 666 672 678 684 689 693 697 700 703 706 709 711 714 716 718 720
727 733 728 722 710 702 683 680 677 681 669 671 668 658 652 640 648 624 624 621 618 622 630 636 641 649 653 659 665 671 677 682 687 692 696 699 702 705 708 711 714 716 719 721
713 720 727 712 695 685 676 693 692 684 671 672 675 639 632 636 629 633 630 629 622 618 624 630 638 644 650 656 663 669 676 681 686 691 695 698 702 704 708 710 713 716 719 722
703 708 724 714 699 682 695 700 693 691 676 676 676 658 637 638 649 655 640 629 624 619 621 627 635 642 648 654 661 667 674 679 684 688 692 696 700 702 707 709 712 715 719 721
711 714 713 707 700 690 694 691 675 673 692 688 678 662 653 649 644 645 641 633 623 620 621 624 631 637 643 651 658 666 671 676 680 686 691 695 698 701 705 709 711 715 719 722
722 714 700 704 687 690 699 673 680 701 693 687 682 673 668 651 646 652 644 637 628 623 621 626 631 637 644 650 656 663 669 673 679 684 688 693 698 702 706 709 712 715 719 722
716 721 718 720 715 713 708 706 702 705 700 691 687 672 659 654 659 652 646 640 635 627 624 627 632 638 645 649 655 661 665 671 677 682 687 692 698 702 705 708 711 716 719 722
720 718 718 723 715 711 703 699 697 700 696 685 682 678 667 660 655 647 646 643 638 630 631 630 634 642 648 652 655 657 662 669 675 680 685 691 696 702 706 709 711 714 718 721
728 722 719 713 705 696 692 696 693 687 686 681 674 663 654 659 656 654 644 640 638 639 637 635 633 640 646 651 655 657 660 666 672 678 683 689 694 699 704 708 711 713 716 718
728 725 718 711 708 711 704 698 691 687 681 678 674 664 657 659 660 654 646 643 640 638 637 634 630 640 643 649 653 656 659 663 669 676 681 686 692 698 702 706 711 714 716 719